GFSNGP_250_rhum_138.txt.gz
RH
30 31 31 28 25 24 24 26 27 28 28 29 29 30 31 32 35 36 37 38 38 39 39 45 56 53 53 57 55 56 63 66 72 68 64 72 80 72 57 56 60 60 57 50
42 31 35 37 38 39 37 34 37 39 39 37 37 37 38 37 33 32 32 30 31 34 36 39 39 40 37 38 37 40 44 45 50 56 55 50 48 46 44 43 42 43 44 43
53 64 44 33 42 42 44 53 54 51 55 48 50 52 46 45 45 43 40 38 40 39 36 42 39 39 40 37 37 36 37 40 42 47 45 42 40 39 37 37 38 36 37 37
57 79 87 62 43 41 44 38 48 68 76 65 59 53 59 63 54 55 53 55 58 62 60 59 62 64 63 60 59 60 61 56 53 55 63 62 59 55 52 60 63 67 56 47
74 51 50 99 81 61 58 50 48 47 48 58 72 74 74 64 80 97 96 76 98 98 100 97 72 66 65 71 72 72 76 73 73 75 75 63 67 63 71 74 79 70 68 66
98 94 59 43 80 59 58 56 46 44 58 51 49 57 75 78 86 79 75 96 98 91 67 77 62 74 75 80 78 63 65 58 68 66 66 71 75 76 69 69 74 78 74 72
92 100 100 100 83 74 77 51 56 46 38 66 76 69 57 58 66 72 80 86 100 100 84 90 75 73 78 77 81 98 88 86 90 86 75 66 66 79 80 79 73 73 78 81
79 100 96 83 93 100 81 60 55 59 46 47 69 64 85 84 90 74 76 84 90 86 96 94 84 70 75 99 93 89 94 91 81 79 83 86 64 63 75 88 98 95 79 78
96 100 98 63 73 71 86 82 85 93 74 57 52 74 77 85 72 86 100 91 87 90 83 96 100 89 82 77 90 99 100 88 100 97 97 97 81 79 74 83 98 96 91 73
85 100 83 84 100 58 56 65 95 79 70 70 76 50 46 57 100 94 94 88 100 100 100 100 100 97 83 82 89 97 93 81 87 100 97 95 89 93 88 80 100 99 82 85
98 99 60 86 100 100 100 100 100 100 96 100 85 84 60 95 98 100 94 99 100 85 78 89 98 100 100 100 100 100 100 91 84 92 94 97 99 95 87 90 96 100 93 82
90 86 64 89 98 86 88 100 91 100 100 100 100 100 100 99 89 100 100 100 100 100 100 100 100 91 88 100 100 100 100 100 100 100 100 99 100 100 100 89 97 100 95 100
90 74 78 98 98 100 99 93 93 59 100 100 100 100 100 100 100 86 64 100 100 100 100 100 100 100 100 100 100 100 100 99 78 90 98 92 85 92 92 97 100 100 99 94
100 74 96 100 100 100 96 97 100 92 91 81 100 100 100 100 100 100 100 100 100 100 100 100 100 100 100 100 100 100 100 100 100 100 87 86 95 95 98 100 100 100 93 90
77 95 74 93 98 100 100 100 100 100 100 100 95 98 96 98 100 100 100 100 100 100 100 100 100 100 100 100 100 100 100 100 100 100 97 98 98 100 96 94 100 100 90 93
70 84 95 58 61 85 100 100 100 97 100 99 100 93 93 100 100 100 100 100 100 96 97 100 100 100 100 100 100 100 96 100 100 100 94 89 92 98 100 100 100 100 97 90
47 63 66 55 43 44 51 81 100 88 76 96 99 100 100 100 96 100 100 100 99 79 89 100 100 100 100 100 100 100 97 84 78 87 94 97 94 88 98 100 100 100 97 95
23 26 34 40 37 30 35 31 38 51 58 58 86 100 100 100 100 92 97 97 95 100 85 88 100 100 100 100 100 99 100 96 94 97 98 100 96 84 86 100 100 100 96 93
15 16 18 18 19 20 22 21 17 20 22 39 71 74 64 67 96 94 72 85 96 76 82 86 91 100 96 89 89 98 86 88 95 96 91 84 78 66 82 100 100 97 84 84
12 11 12 13 12 13 15 15 16 14 15 21 23 24 39 65 75 48 31 52 76 82 80 94 92 83 75 88 98 81 56 58 81 82 72 68 49 60 83 94 89 88 68 82
10 10 10 10 9 11 11 12 11 12 15 16 15 16 17 17 18 19 19 31 56 67 68 77 86 83 88 92 54 45 34 48 48 38 40 45 77 79 72 64 69 56 40 58
9 10 10 10 11 11 11 11 11 12 12 12 12 12 14 14 14 15 15 20 38 59 68 54 57 56 46 36 36 30 29 34 25 25 28 48 56 31 28 36 48 43 30 32
6 7 7 8 8 9 10 9 9 10 10 10 10 10 10 10 11 11 12 14 17 17 16 16 15 16 17 18 17 18 21 22 18 18 21 26 30 31 25 22 29 31 30 25
7 7 7 7 7 7 7 6 6 7 8 8 8 9 10 11 11 11 11 12 14 16 14 13 13 13 13 14 15 17 16 16 16 16 18 19 27 32 22 20 26 27 25 22
7 7 7 7 7 6 7 7 8 8 7 7 7 7 7 7 8 8 9 10 11 11 11 12 11 11 12 14 15 16 17 17 17 19 20 22 23 17 18 20 21 20 21 22
7 7 7 7 7 6 6 6 7 6 7 7 7 6 6 6 6 7 8 8 9 10 11 11 10 12 14 15 16 16 15 16 17 17 18 18 18 18 19 20 19 18 19 20
8 7 7 7 7 7 7 7 8 7 7 7 7 6 6 6 6 6 7 8 8 9 10 10 11 11 12 14 14 15 15 15 15 16 17 16 16 17 18 17 16 17 18 18

GFSNGP_250_rhum_144.txt.gz
RH
36 40 31 28 29 34 37 36 33 34 36 37 37 36 38 39 38 44 53 49 42 38 38 40 40 36 38 43 46 47 46 46 52 56 57 55 54 59 64 65 68 69 69 72
52 44 40 36 34 27 25 30 38 35 34 37 43 47 46 48 51 53 49 44 48 48 48 51 55 58 60 61 57 68 68 71 76 71 69 68 61 62 65 64 59 64 64 62
54 64 74 58 55 48 44 43 36 34 35 38 34 30 30 32 37 49 56 55 61 49 49 43 49 49 55 64 74 79 94 95 91 85 79 79 77 75 82 65 61 62 61 69
79 61 59 61 57 54 56 57 56 46 43 44 41 43 48 49 38 33 38 46 50 75 100 99 97 77 62 59 66 67 77 90 83 93 95 96 84 77 76 82 85 81 80 73
82 89 87 75 61 96 71 51 56 41 46 56 50 44 41 42 61 61 45 49 56 56 59 63 68 80 66 78 72 72 65 60 65 68 75 76 75 75 77 74 72 72 83 86
82 80 88 85 85 91 97 86 82 71 64 53 51 48 42 52 53 44 64 64 54 62 50 57 68 60 64 72 76 97 85 98 100 100 100 100 98 100 99 84 78 91 100 100
89 90 99 100 100 97 96 100 98 97 100 100 100 92 93 87 74 61 46 46 44 46 43 55 78 93 90 100 100 100 100 94 96 100 100 100 100 90 100 100 100 96 95 94
100 100 100 100 90 92 100 100 98 99 99 84 84 99 84 74 79 72 88 72 59 50 50 50 47 61 58 60 63 67 85 100 93 76 97 96 100 100 100 99 90 99 96 80
100 100 100 74 90 77 74 79 85 96 98 97 100 100 100 100 100 94 80 100 81 66 71 79 61 67 86 93 77 98 100 100 100 100 98 89 98 100 100 100 100 98 100 87
98 96 88 79 94 94 91 98 100 100 100 100 100 100 100 100 97 100 100 97 99 98 81 82 85 87 98 100 100 93 70 79 95 97 100 100 100 89 78 84 55 64 66 72
90 100 92 92 88 98 100 100 100 100 100 100 100 100 100 100 100 100 100 100 94 99 100 96 81 100 99 95 100 100 100 99 94 91 87 59 71 69 71 80 65 66 91 100
83 96 97 95 94 97 94 98 96 83 96 100 95 95 97 80 99 100 100 100 100 100 100 100 100 100 96 82 96 100 100 100 74 80 100 100 100 100 100 100 100 97 81 84
100 99 96 100 90 93 94 95 92 96 100 95 97 66 67 64 66 99 100 98 100 100 100 100 100 100 100 100 100 96 100 100 100 100 100 100 100 100 100 100 100 100 100 100
100 100 96 96 95 93 89 67 72 96 74 66 62 56 43 48 38 48 80 86 98 100 100 100 100 100 100 100 100 100 100 100 100 100 100 100 100 100 100 100 100 100 100 100
83 73 57 58 71 62 53 60 64 50 32 30 23 26 25 25 27 28 40 66 82 98 100 100 100 100 100 100 99 100 91 90 97 100 92 90 97 100 100 100 100 100 100 100
61 57 54 47 45 42 38 31 22 17 17 17 17 16 15 14 16 20 25 30 34 62 81 90 100 100 100 100 100 100 100 100 100 100 100 94 97 100 100 100 100 100 100 100
30 28 23 23 24 19 15 14 14 14 13 12 11 10 11 11 12 14 18 20 24 32 39 43 48 74 99 93 91 91 79 82 80 96 98 98 100 100 100 100 100 100 100 96
22 22 19 18 20 17 13 12 11 11 11 10 9 9 10 10 10 11 14 15 14 16 22 33 33 36 44 48 56 64 66 65 58 47 48 56 69 73 79 66 61 80 87 88
18 18 18 14 13 13 12 11 11 10 11 11 11 10 10 10 10 11 11 12 12 13 14 17 20 22 27 29 30 31 32 26 25 21 19 23 27 42 46 39 38 54 48 53
15 14 15 13 12 13 14 13 12 11 11 10 10 10 10 10 10 11 10 10 10 10 11 12 12 13 14 14 16 17 16 16 16 15 15 15 16 20 26 28 24 21 20 20
12 12 15 16 17 16 15 15 13 11 11 10 10 9 10 9 10 10 10 10 10 10 11 12 12 12 11 11 12 12 12 12 12 13 14 14 14 15 18 18 18 18 19 18
14 15 16 17 18 17 14 14 13 13 12 11 11 10 10 9 8 8 8 9 9 9 10 10 10 10 11 11 11 12 12 12 12 13 14 14 13 14 14 14 14 15 16 16
15 15 16 17 18 17 16 15 14 13 12 12 11 10 10 8 8 8 7 7 7 7 7 7 7 8 8 8 9 10 10 11 12 12 12 13 13 13 13 13 14 14 14 15
16 16 14 14 15 16 16 14 12 11 12 12 11 10 10 9 8 8 8 7 7 7 7 7 7 6 6 7 8 8 7 8 8 9 9 9 10 11 12 11 10 11 13 12
12 12 11 11 12 12 13 11 10 10 10 10 10 10 9 9 9 8 8 7 8 7 7 7 7 6 6 7 7 7 7 7 7 7 7 8 8 8 8 9 10 10 10 12
11 10 9 9 9 8 8 9 9 9 8 9 9 9 9 8 8 9 8 7 7 7 7 7 7 7 7 7 7 7 7 7 7 7 7 7 7 8 8 8 9 10 11 12
7 7 6 6 7 7 7 7 9 9 9 9 9 8 9 8 8 8 8 8 7 7 7 6 7 7 7 7 7 6 6 6 7 7 7 7 7 7 8 8 8 10 11 12

GFSNGP_250_rhum_150.txt.gz
RH
24 31 29 38 33 31 32 36 45 40 36 33 34 34 35 42 43 56 56 55 57 66 54 43 77 58 72 45 39 40 44 48 53 55 62 70 69 69 63 61 60 63 69 72
33 30 30 30 55 45 46 41 45 58 54 64 69 45 58 66 58 52 71 75 68 71 79 64 59 49 67 89 58 54 51 48 51 61 63 63 62 63 62 71 76 66 71 82
45 43 39 32 31 54 74 68 48 65 74 95 93 93 72 78 82 68 72 75 87 81 83 73 73 72 56 51 60 47 54 67 61 60 58 60 66 71 64 69 71 80 99 100
89 53 74 48 50 57 59 39 56 59 57 65 79 94 100 78 76 99 98 95 98 100 100 100 78 79 83 74 66 61 47 47 65 54 58 61 74 83 100 100 100 100 100 97
100 100 99 97 75 56 74 38 42 51 65 86 100 100 100 100 100 100 100 100 84 77 100 100 98 94 100 99 89 80 67 65 69 60 76 78 87 90 100 100 87 74 72 78
100 100 100 100 100 80 79 76 78 73 94 98 99 100 100 90 83 96 83 91 98 100 100 100 100 100 100 100 100 95 88 93 76 70 73 98 100 100 72 60 66 66 88 90
73 96 100 100 100 100 100 97 97 91 82 90 64 61 72 75 69 69 86 84 80 96 100 100 100 100 100 100 100 100 100 98 100 100 92 71 80 68 74 74 76 100 100 100
100 98 99 100 100 100 98 91 100 100 100 96 84 94 87 79 97 92 76 75 90 99 100 100 100 100 100 100 100 100 100 100 100 100 100 100 99 79 89 100 100 100 100 100
100 100 100 100 100 100 100 100 100 94 99 100 100 100 100 100 96 72 99 99 93 95 88 99 100 100 96 100 100 100 100 100 100 100 100 100 100 100 96 98 100 100 100 100
65 100 100 95 87 99 100 100 100 100 100 100 100 100 100 100 100 100 100 94 95 100 100 100 100 100 100 100 100 100 100 100 100 100 100 100 100 100 100 100 100 93 99 100
77 88 71 83 98 94 89 98 100 100 100 100 100 100 100 100 100 100 100 97 99 100 100 100 100 100 100 100 100 100 100 100 100 100 100 100 100 100 97 100 100 100 94 75
74 74 75 76 71 86 92 92 98 100 97 100 100 100 95 100 100 100 100 86 87 95 100 100 100 100 100 100 100 94 82 61 77 94 100 100 100 100 100 100 100 95 100 100
98 79 77 94 100 97 87 94 100 100 100 100 100 91 100 86 73 74 85 96 100 100 100 100 100 100 94 94 95 93 57 26 28 30 38 74 93 84 92 96 100 100 99 89
88 88 81 77 74 80 82 76 69 66 63 62 74 78 87 88 74 76 85 82 76 66 80 92 52 45 33 31 27 22 21 19 21 19 20 20 25 37 49 80 92 97 99 100
72 68 75 85 91 94 89 77 73 70 68 68 69 68 65 71 69 68 63 55 48 45 48 46 38 26 22 18 18 17 17 16 17 15 15 17 18 22 27 35 50 77 88 89
55 58 66 74 77 86 84 73 73 67 64 59 55 45 38 38 41 41 34 29 27 30 28 28 23 22 21 15 14 14 11 11 12 11 11 13 15 17 22 27 33 29 28 44
34 40 39 41 37 38 60 81 79 77 68 56 52 29 20 20 22 23 24 19 19 18 15 15 13 14 14 12 10 10 10 10 10 10 10 11 12 13 14 19 20 18 21 23
20 25 24 23 23 30 36 34 31 41 53 41 40 26 16 17 16 16 15 14 12 11 12 13 12 11 12 12 13 13 12 11 10 11 11 11 10 10 11 13 14 13 15 18
17 17 20 18 18 20 20 21 24 24 17 16 17 16 14 14 13 13 13 12 12 11 10 10 11 12 12 14 14 13 12 11 11 11 11 11 11 11 11 12 12 12 13 15
18 19 19 20 19 19 19 18 18 18 17 16 14 14 13 12 10 10 11 11 10 11 11 11 12 12 13 14 14 14 13 12 11 11 11 11 11 12 12 12 12 12 12 14
18 18 19 20 20 19 19 19 19 18 16 14 12 12 12 12 11 10 10 10 9 10 11 12 12 12 14 14 14 13 13 12 12 11 10 11 11 11 11 11 12 12 11 11
18 17 17 17 19 20 19 17 15 14 13 13 13 14 15 16 14 12 11 11 12 11 12 13 13 12 14 15 15 14 13 12 12 12 11 10 9 9 10 10 10 10 10 10
17 16 16 16 15 14 14 16 16 14 13 14 15 16 15 17 16 14 15 13 13 14 14 13 14 12 12 14 14 13 12 13 12 12 12 11 10 9 9 8 8 8 8 7
12 13 14 14 15 15 16 17 16 16 15 13 13 13 12 12 14 15 14 15 14 13 13 12 12 12 12 12 12 12 12 12 13 12 12 11 11 9 8 8 8 8 8 8
13 12 13 12 11 12 11 11 11 13 13 13 13 12 10 9 11 13 11 11 12 11 11 10 10 10 10 10 11 11 11 11 12 12 12 11 10 8 8 8 8 8 7 7
12 12 12 10 9 9 9 9 10 11 11 11 11 10 10 9 9 10 10 10 10 9 9 8 8 9 9 9 9 10 10 10 11 11 11 10 9 9 9 8 8 6 6 7
8 8 9 9 9 8 8 9 9 10 9 8 8 7 6 6 6 6 7 7 7 7 7 7 7 7 8 8 8 9 9 10 10 11 11 10 9 8 8 8 8 7 7 6

GFSNGP_250_rhum_153.txt.gz
RH
39 32 30 27 30 32 37 39 42 42 48 46 40 43 48 38 38 41 39 48 47 60 55 55 59 65 63 57 65 78 66 48 47 46 44 42 40 44 50 53 53 57 58 65
54 60 46 42 42 30 32 30 42 46 51 54 52 54 49 49 60 57 60 63 67 59 70 74 61 57 63 70 66 66 66 62 62 59 58 64 59 49 47 50 50 52 57 53
88 84 54 61 54 38 47 35 32 39 48 64 84 97 96 70 75 64 78 65 66 87 98 90 95 97 96 82 76 81 79 68 72 73 65 57 56 61 65 58 62 98 100 100
95 79 95 93 95 92 71 80 65 48 46 52 70 80 77 69 68 51 43 42 49 62 84 100 99 90 100 100 91 100 100 100 100 97 85 74 70 68 67 86 92 94 69 63
100 100 96 71 91 100 100 99 92 99 90 72 59 55 47 45 43 51 65 70 72 69 66 96 90 90 100 100 100 100 100 100 100 100 100 100 100 100 93 81 73 76 100 100
62 69 66 70 99 92 84 100 100 94 81 80 93 100 98 89 85 70 59 51 58 84 92 97 88 82 88 99 100 100 100 100 100 100 100 100 100 100 100 100 100 100 96 78
59 77 84 59 52 85 100 100 100 100 100 100 96 72 76 83 97 98 99 100 84 63 61 66 68 63 82 90 84 85 89 100 100 100 100 100 100 100 100 100 100 100 100 100
64 64 78 75 54 54 54 70 100 100 100 100 100 100 100 100 95 76 67 60 77 100 100 100 100 100 100 90 66 76 80 86 92 97 100 100 100 100 100 100 100 100 100 100
62 57 64 83 88 56 62 61 52 52 84 95 100 100 100 100 100 100 100 100 97 80 100 100 100 100 100 100 100 100 99 100 100 100 100 100 100 100 100 100 100 100 100 100
76 67 60 51 58 75 88 84 74 64 63 48 41 50 79 98 100 100 100 100 100 100 100 99 92 98 72 99 100 100 100 100 98 100 100 100 100 100 100 100 100 100 100 100
82 74 65 43 39 44 63 88 100 91 70 70 64 53 44 51 61 81 86 77 70 84 90 93 97 97 95 90 89 100 94 95 95 98 100 100 100 100 100 100 100 96 98 99
49 47 44 41 39 37 45 56 74 98 99 87 71 72 70 58 59 56 51 52 56 65 65 66 71 76 83 75 81 85 93 96 91 91 93 100 100 100 100 84 46 31 34 33
38 33 32 34 41 45 62 58 62 58 77 96 92 92 82 74 77 72 67 71 71 76 79 83 80 73 79 73 70 71 84 95 99 96 97 83 80 58 55 30 20 18 18 19
28 26 25 31 46 53 64 69 66 54 58 62 78 94 96 97 93 88 83 80 81 80 77 72 74 68 69 74 69 64 68 66 56 45 44 37 34 25 19 19 15 15 16 15
24 25 24 29 40 36 37 41 44 42 41 40 35 47 64 64 62 61 63 68 71 68 58 54 53 58 51 52 36 27 27 26 25 24 25 23 19 15 14 13 13 13 13 12
24 22 19 19 18 22 21 27 32 28 24 24 24 23 23 25 31 34 31 28 30 36 33 31 29 31 32 30 21 19 18 16 16 17 17 16 12 11 11 10 10 10 10 11
16 16 15 15 15 13 13 14 18 26 20 16 17 19 23 25 26 24 20 20 21 24 25 25 26 18 17 18 16 14 14 14 13 12 11 10 9 9 10 12 12 11 12 11
13 13 13 13 14 15 15 15 15 15 16 16 15 17 17 16 15 16 16 14 15 16 15 17 16 16 16 16 15 13 13 13 11 11 11 11 11 12 12 13 12 11 11 11
12 12 12 12 12 13 13 13 13 12 14 15 16 18 17 16 16 15 15 17 16 16 16 15 16 16 16 15 15 13 12 14 13 12 12 13 14 13 13 13 12 11 11 11
11 11 11 12 12 11 12 11 11 11 13 14 15 16 17 18 18 17 16 18 18 16 16 16 14 14 15 14 13 13 14 14 14 14 14 15 16 15 14 12 11 10 10 10
12 12 11 10 10 10 10 9 9 11 13 14 15 17 17 18 18 17 17 17 19 14 14 15 14 13 13 13 13 14 14 14 14 14 16 16 16 15 14 13 11 11 10 10
9 9 9 8 8 8 8 8 9 10 12 13 15 15 14 14 14 14 14 15 17 16 14 14 14 13 14 14 14 14 13 13 14 14 16 15 15 15 14 12 11 10 10 9
8 8 8 8 8 9 9 9 9 10 12 15 15 16 15 14 13 12 14 14 12 14 14 14 12 12 13 15 13 12 13 14 13 14 14 14 14 14 14 12 10 9 9 9
7 7 8 8 8 8 9 9 9 10 10 11 12 13 13 13 12 11 10 10 10 10 10 10 10 10 10 11 11 10 10 10 11 11 11 11 12 13 12 11 10 10 9 9
7 7 7 8 8 8 9 9 8 8 8 9 10 11 10 10 10 11 8 9 9 8 8 8 8 8 8 8 8 8 9 9 9 9 10 10 10 10 11 11 10 10 10 10
6 6 6 6 7 7 6 7 8 8 8 9 9 9 9 8 8 8 8 8 9 8 8 7 7 7 6 6 6 7 7 8 8 8 9 9 9 10 11 11 10 10 10 10
5 5 5 6 6 5 6 6 6 6 6 7 7 6 6 6 5 5 5 6 6 6 5 5 5 5 5 5 5 6 6 7 8 8 8 8 9 9 9 9 9 9 9 9

GFSNGP_250_rhum_156.txt.gz
RH
47 47 48 47 43 47 48 41 48 45 46 46 45 44 41 44 34 45 42 39 44 44 49 49 48 50 52 49 49 51 53 57 65 67 67 67 63 60 58 54 49 47 43 44
58 45 40 44 49 58 51 43 56 52 45 60 68 69 58 65 62 52 57 51 50 61 68 62 63 69 76 82 75 68 78 79 82 85 79 73 75 77 74 68 61 61 53 58
56 86 91 65 42 43 43 69 76 53 62 52 45 47 51 54 44 44 44 43 51 58 68 81 98 91 99 99 90 89 95 84 88 94 99 84 76 85 83 90 93 84 81 82
75 49 61 62 69 66 54 45 54 91 97 93 82 86 72 60 45 45 48 46 48 73 97 99 75 78 100 100 98 91 100 100 99 100 100 99 100 95 100 100 97 77 78 90
68 60 64 62 61 63 77 67 57 61 80 96 100 98 60 80 96 92 85 90 87 79 63 68 60 61 81 100 99 100 100 100 100 100 100 100 100 100 100 100 100 100 100 100
94 75 75 80 64 64 60 63 84 76 64 53 60 99 80 72 90 88 82 95 97 98 99 100 100 100 100 76 68 71 71 64 60 64 68 71 82 98 99 100 100 100 100 100
63 74 98 89 64 61 59 62 69 93 98 84 71 54 46 66 96 100 100 100 92 90 87 69 74 71 74 74 77 100 100 100 100 100 100 100 100 100 85 89 100 100 100 100
54 50 52 69 80 66 62 51 50 56 71 100 96 72 74 64 52 44 52 84 100 100 100 100 99 100 100 100 100 91 79 100 100 100 100 100 100 100 100 100 88 98 100 100
57 56 47 44 47 45 42 65 73 63 57 58 67 90 100 90 86 88 69 50 44 41 48 64 57 43 62 95 98 90 92 99 66 73 83 87 64 54 62 72 90 100 100 100
49 43 36 38 30 34 40 45 44 50 62 59 63 66 55 61 76 94 84 86 83 59 52 49 46 43 39 42 44 48 64 65 54 66 58 51 68 65 65 73 93 100 100 100
42 37 36 31 30 26 29 33 37 38 41 57 66 53 45 45 44 66 96 95 83 76 78 76 69 65 57 51 50 51 52 50 52 58 64 67 72 79 79 81 81 90 93 89
34 32 29 27 29 25 20 24 30 33 37 41 43 44 40 40 49 54 58 81 100 100 98 94 88 90 94 84 76 70 65 65 63 67 67 69 84 89 91 91 78 71 68 76
29 24 22 26 26 25 25 25 27 27 36 39 34 35 33 34 45 51 60 70 67 64 72 77 79 86 90 87 77 68 68 77 79 72 72 73 62 75 97 83 79 67 49 32
27 22 18 19 20 22 23 23 24 25 26 26 24 25 27 27 36 46 54 45 45 43 35 33 30 32 40 52 49 49 57 63 59 54 51 48 48 48 53 50 46 33 21 23
23 18 16 14 14 14 15 16 18 21 19 18 21 23 22 22 25 31 29 25 25 32 31 28 28 30 29 30 33 37 40 35 27 26 29 32 33 28 26 24 21 18 17 16
17 15 13 13 13 12 12 13 14 14 15 15 13 13 12 12 14 14 13 13 16 24 26 23 22 17 18 20 23 21 20 19 19 17 20 20 20 17 15 15 14 13 13 13
15 14 14 14 14 13 12 12 13 13 12 12 12 12 12 11 11 11 11 11 12 13 14 14 16 15 14 14 17 18 17 15 15 14 15 14 13 14 13 12 13 13 11 10
12 12 12 13 12 12 12 12 12 12 12 13 12 11 11 10 10 11 11 11 11 12 12 12 14 17 18 18 18 18 18 16 16 16 16 16 14 14 12 12 12 12 11 10
13 12 12 11 11 11 11 11 11 11 11 11 10 10 10 10 10 10 11 11 11 11 12 12 14 15 16 16 16 18 18 18 17 17 17 16 15 15 14 13 12 11 11 11
10 10 9 9 9 9 9 9 9 9 10 10 10 10 10 11 10 10 10 10 11 10 11 12 14 14 14 14 15 16 17 16 15 16 15 16 16 16 16 14 14 13 12 11
9 8 8 8 8 8 8 8 8 9 9 9 9 9 9 10 10 9 9 9 10 9 10 11 13 14 14 14 15 15 15 15 14 14 15 16 16 15 15 15 14 14 13 13
7 7 7 7 7 7 8 7 7 7 7 8 8 8 8 8 8 8 8 8 8 9 9 11 12 13 14 14 14 14 14 13 14 14 14 15 14 14 15 15 14 14 14 13
6 6 6 6 6 6 7 7 6 6 6 7 7 6 6 6 7 7 7 8 7 9 9 10 10 10 10 12 12 11 12 12 11 12 12 12 13 13 14 15 15 14 13 12
8 7 7 6 6 6 6 6 6 6 6 6 6 6 6 6 6 6 6 8 8 8 8 9 8 8 8 9 10 10 10 10 10 11 11 10 10 11 12 12 12 12 12 12
6 6 6 5 5 6 5 6 6 6 6 6 6 6 5 5 5 6 6 6 7 8 8 8 7 7 7 8 8 8 8 8 9 9 9 9 9 10 10 10 11 11 10 10
5 4 5 5 5 5 6 6 6 6 6 6 6 6 5 5 5 5 6 6 7 7 7 7 6 6 6 6 6 6 6 6 6 6 7 7 7 8 8 9 9 9 9 9
4 4 4 4 4 3 4 4 4 5 5 5 6 5 4 4 4 4 5 5 5 5 5 5 5 5 5 5 5 5 5 4 4 5 5 5 6 6 7 7 7 8 8 9

GFSNGP_250_rhum_162.txt.gz
RH
44 38 38 39 38 42 52 53 64 44 59 39 49 67 44 51 55 53 51 45 54 61 55 55 56 58 51 48 49 44 43 45 48 46 58 63 61 69 74 74 80 85 78 75
40 47 58 57 48 38 45 42 43 44 48 40 40 43 81 80 58 56 48 55 50 63 68 69 72 79 81 68 68 63 76 72 58 63 62 62 64 56 58 62 71 71 75 87
53 53 55 72 54 48 48 51 49 66 62 54 48 42 43 42 42 50 56 61 53 48 51 54 62 71 79 82 85 86 86 85 71 72 86 96 99 94 100 100 100 100 100 100
82 79 79 76 70 51 38 44 52 59 58 51 51 54 47 48 49 51 46 47 42 44 48 63 55 51 58 57 70 76 80 86 94 95 95 93 96 93 94 89 92 91 88 83
100 100 97 98 89 84 79 84 73 68 57 42 43 50 51 50 47 47 47 49 58 66 62 50 41 45 46 50 53 64 73 74 78 85 84 79 73 72 74 73 67 68 72 88
98 98 100 100 100 100 100 97 88 78 75 65 55 53 46 50 60 53 49 44 48 44 46 73 73 61 50 46 44 55 62 51 53 59 66 78 80 77 87 94 96 86 80 82
86 73 82 79 76 89 100 94 93 98 90 74 63 68 76 69 73 72 74 64 60 52 52 46 44 60 72 60 55 52 51 50 53 55 56 52 52 54 61 63 59 62 63 56
100 88 78 87 90 100 85 76 64 66 56 52 81 97 97 92 81 78 77 66 60 52 53 45 41 46 74 77 74 69 65 70 64 62 62 60 68 67 72 71 72 72 76 75
100 86 77 74 84 79 74 78 73 64 53 44 51 53 54 59 73 61 40 39 37 37 34 32 38 40 38 57 82 82 76 70 61 64 66 69 88 99 99 98 97 96 96 89
73 79 77 68 57 60 64 72 73 60 53 48 39 32 35 34 35 34 38 34 31 28 27 26 28 32 34 37 38 44 52 61 67 72 67 64 62 62 62 57 52 48 68 94
68 65 58 52 52 47 48 49 50 42 34 33 38 33 26 24 29 36 39 38 32 32 28 27 25 27 24 26 33 39 39 41 43 44 50 51 46 51 66 63 52 45 46 49
57 59 55 54 53 53 44 35 39 39 36 34 35 36 32 22 26 27 28 28 28 28 33 32 25 23 19 20 24 28 34 37 43 42 34 32 36 39 40 43 42 41 38 38
62 57 47 53 50 47 43 36 36 33 32 30 18 20 22 23 26 31 25 27 32 33 32 29 24 20 17 15 16 17 23 24 24 27 28 26 26 31 36 31 30 30 27 27
82 56 45 43 39 35 33 34 36 29 24 24 20 17 16 19 21 24 27 23 24 27 26 23 21 18 16 15 14 15 15 18 18 19 21 23 24 25 24 26 26 23 20 20
49 37 37 36 37 29 24 27 30 30 21 19 19 16 15 15 16 17 18 17 18 18 18 18 17 15 14 14 14 14 14 14 13 13 14 16 16 15 16 18 19 17 14 12
39 29 31 37 32 23 20 22 21 21 19 17 17 15 14 14 14 15 15 14 14 15 15 15 14 13 14 13 14 13 13 13 13 13 13 12 12 13 13 13 13 13 12 12
42 36 27 30 22 18 17 14 13 13 13 14 14 13 13 13 13 14 14 14 13 13 13 12 12 12 13 13 12 12 12 12 12 12 12 12 11 12 12 12 12 12 12 11
24 21 18 17 14 12 10 9 8 9 10 11 11 12 12 12 12 11 11 10 9 8 9 9 8 9 9 10 9 9 10 10 10 10 10 10 10 11 11 11 11 11 11 11
16 12 11 10 9 8 8 7 7 8 8 10 10 9 8 7 7 6 6 6 6 5 6 5 5 6 6 7 7 8 8 9 9 9 9 9 10 10 10 10 10 10 10 10
9 9 9 8 8 8 8 8 7 7 7 6 6 6 5 6 6 5 5 5 6 6 5 6 6 6 6 6 6 6 7 8 8 9 9 9 10 10 10 10 9 9 10 10
8 8 8 8 8 8 7 6 6 6 6 6 5 6 5 5 5 4 4 4 5 5 5 5 6 6 5 5 5 6 6 6 7 7 8 8 8 8 9 9 9 8 9 9
6 7 7 7 7 7 7 7 6 5 6 6 6 5 5 4 4 5 5 5 5 6 6 6 5 5 5 5 6 6 6 6 6 6 6 7 7 8 8 8 8 8 8 9
6 7 7 8 7 7 7 6 6 6 5 5 5 5 4 4 4 5 5 5 4 5 5 5 5 5 5 5 6 6 6 6 6 6 6 6 7 7 7 7 7 8 8 9
7 6 5 5 5 6 6 6 6 6 5 5 5 5 4 4 4 4 4 5 4 4 4 4 4 4 5 5 5 6 6 6 6 6 6 6 6 6 6 7 7 8 8 8
6 6 6 5 5 5 5 5 6 6 5 5 5 4 4 4 5 5 5 4 3 3 4 4 4 4 5 5 5 5 5 5 5 5 5 5 6 6 6 7 7 7 8 8
5 5 5 5 4 4 5 5 5 5 4 5 5 4 4 4 4 4 4 4 3 3 3 3 3 3 4 4 4 5 5 5 5 6 6 6 6 6 6 6 7 7 7 7
4 4 5 5 4 4 4 4 4 5 4 3 4 4 3 3 3 3 3 3 4 4 4 3 3 3 3 3 3 4 4 4 4 4 4 4 4 5 5 5 5 5 5 6

GFSNGP_250_rhum_168.txt.gz
RH
42 44 40 40 49 54 53 55 45 42 43 47 53 50 50 52 50 51 62 68 67 60 54 58 68 65 67 65 61 60 64 64 62 62 63 72 76 88 88 82 80 79 75 71
74 76 66 56 41 44 46 55 68 67 75 67 70 58 62 72 77 79 76 82 85 88 87 84 65 59 52 49 54 56 56 72 81 66 61 53 53 77 74 91 99 94 90 91
75 92 100 89 81 78 76 73 68 66 73 71 64 51 49 41 41 41 46 53 72 81 80 80 86 94 96 95 84 75 66 64 68 70 70 74 82 76 78 79 75 84 97 100
69 54 46 64 82 64 76 72 60 63 70 68 74 72 51 43 47 47 44 47 48 41 40 42 42 39 37 36 36 37 37 42 50 56 66 61 60 66 71 91 98 92 77 72
89 81 98 96 91 98 86 60 56 47 51 46 49 48 44 42 42 42 42 43 41 43 46 51 47 38 35 33 28 28 30 32 33 38 44 56 64 55 53 55 64 79 95 100
65 80 91 100 100 99 91 81 78 76 77 80 84 86 88 90 90 83 77 77 73 71 81 64 57 52 48 51 46 37 29 31 32 33 34 35 44 50 54 53 56 55 58 63
98 96 60 82 86 96 82 66 96 100 99 94 94 99 97 99 95 87 91 98 95 89 85 80 72 60 56 55 50 44 41 29 29 31 33 33 32 34 42 48 53 54 65 67
79 92 100 100 99 71 69 78 87 96 86 79 80 89 84 92 98 94 100 95 92 88 82 70 64 51 52 41 33 35 33 30 29 32 29 26 29 29 29 29 35 45 53 48
89 90 99 98 98 100 100 99 99 79 72 89 100 100 100 98 76 72 79 76 69 65 57 53 52 53 47 38 38 30 35 28 28 27 28 26 24 25 28 31 29 28 31 34
69 88 100 99 100 93 99 100 100 100 100 100 88 82 90 100 100 96 92 85 84 75 65 62 56 50 49 43 36 31 34 32 25 23 23 25 24 23 23 25 27 28 27 28
67 76 77 77 76 90 72 68 83 99 99 90 96 100 100 99 96 100 100 93 86 79 66 66 58 47 41 40 39 35 27 28 19 17 18 20 22 20 19 20 22 26 25 24
63 69 61 63 68 60 65 66 63 67 69 82 90 78 78 80 86 83 76 72 65 59 51 45 43 48 38 27 32 32 28 23 20 19 20 19 21 20 19 19 18 21 26 25
70 68 67 71 74 73 64 73 82 85 69 80 89 74 66 63 66 61 56 55 50 44 39 38 35 38 34 22 18 19 18 17 18 16 15 18 17 20 19 18 18 17 23 24
92 91 84 85 78 79 91 96 94 75 69 59 60 59 53 44 43 43 40 36 34 34 33 27 23 20 13 12 9 10 12 13 13 14 14 16 16 15 15 17 16 15 15 16
92 92 79 89 96 83 72 60 55 52 45 41 43 45 37 37 32 28 27 26 20 18 18 19 13 9 7 7 7 7 7 8 9 10 10 10 10 11 12 13 14 15 14 13
84 74 80 84 87 64 40 35 33 31 28 24 24 26 28 25 17 17 14 13 10 9 9 8 6 6 6 6 6 6 6 6 7 8 7 8 9 10 11 12 13 15 17 17
72 80 77 67 44 23 17 15 12 11 12 12 12 11 12 11 9 9 8 7 6 6 6 6 5 5 5 6 6 6 6 6 6 6 6 6 7 8 8 10 12 14 15 15
87 67 45 23 17 15 9 10 10 11 11 9 7 8 8 7 6 6 6 5 6 6 6 4 5 5 5 5 5 6 6 6 6 6 5 5 6 6 7 8 8 9 9 8
51 26 16 8 7 7 8 9 11 11 10 6 5 5 6 5 5 5 5 5 6 5 5 5 5 5 5 5 5 5 5 5 5 5 5 5 5 5 5 5 5 5 6 6
14 9 7 8 8 9 10 11 9 7 5 5 4 4 4 4 4 4 5 5 6 5 5 6 5 5 4 4 4 5 5 5 5 5 5 5 5 5 4 4 5 5 5 5
7 7 8 10 11 10 6 5 5 6 5 4 4 4 4 4 5 4 5 4 5 4 5 5 5 5 5 5 5 5 5 5 4 4 4 4 4 4 4 4 4 5 5 5
9 9 7 6 4 4 5 5 4 4 4 4 4 4 4 5 5 5 5 4 5 4 4 4 4 4 5 4 5 4 4 4 4 4 4 4 3 4 4 4 4 4 5 5
5 4 3 3 3 4 4 4 4 4 4 4 4 4 5 5 4 4 5 4 4 4 4 4 4 4 4 3 4 4 4 4 3 3 3 3 3 3 3 4 4 4 4 4
3 3 3 3 4 4 4 4 4 5 5 5 5 5 5 5 4 4 5 4 4 3 4 3 3 3 3 3 3 3 3 3 3 3 3 3 3 3 4 4 4 4 4 4
4 4 4 4 4 4 5 6 6 6 5 5 5 4 4 5 5 4 4 4 4 3 4 3 4 3 3 3 3 3 3 3 3 3 3 3 3 3 3 4 4 4 4 4
5 5 6 5 6 6 6 6 6 5 5 5 5 4 4 4 4 4 4 4 4 4 4 3 3 3 3 3 3 3 3 3 3 3 3 3 3 3 3 3 4 4 4 5
6 6 6 6 6 6 5 5 5 5 4 5 5 4 4 5 5 5 4 4 4 5 5 4 4 4 4 3 3 3 3 4 4 4 4 4 4 3 3 3 3 4 4 4

GFSNGP_250_rhum_171.txt.gz
RH
67 94 94 78 63 59 59 51 52 53 48 51 46 49 46 44 44 46 60 64 71 78 82 87 89 93 98 99 100 100 97 97 85 68 63 65 71 73 71 71 80 86 84 90
91 62 76 66 65 96 82 53 62 60 61 50 51 61 64 60 60 61 64 60 58 76 99 100 100 100 85 69 63 55 57 60 60 57 54 52 49 52 55 54 66 80 87 94
50 49 47 48 37 62 81 71 75 72 73 87 82 67 67 70 69 71 78 80 86 93 73 60 53 58 52 44 46 46 45 42 41 45 46 43 44 41 42 43 48 54 61 70
60 66 77 71 74 63 62 61 65 73 76 61 76 90 84 58 48 52 57 72 59 62 59 52 51 42 43 57 63 60 55 56 44 50 47 44 41 40 39 38 38 38 39 52
66 74 94 86 100 91 81 73 70 65 83 100 96 89 92 98 98 86 78 72 88 87 81 81 67 71 76 67 63 63 69 68 70 71 65 47 39 37 40 39 35 32 35 37
75 73 72 88 72 69 76 83 84 100 100 100 100 100 93 83 74 90 99 100 100 100 100 100 100 98 96 95 88 79 87 93 97 74 56 48 39 37 31 27 26 29 28 32
89 91 96 95 77 68 67 66 61 75 100 100 98 99 99 100 100 97 95 84 83 88 79 71 80 80 86 96 92 81 86 68 67 72 62 47 48 39 36 32 34 26 28 30
82 74 71 99 75 74 81 75 81 72 66 75 91 88 77 90 95 100 100 88 74 75 75 68 66 79 80 57 49 55 81 67 72 70 78 68 45 45 41 41 32 30 26 29
59 69 69 63 74 60 63 71 66 66 73 71 69 71 75 92 100 100 99 98 100 100 94 99 88 78 70 63 66 57 68 58 60 50 52 63 57 49 49 37 28 27 28 28
58 64 69 51 59 76 96 79 66 61 59 62 65 64 59 61 62 70 69 72 73 74 79 75 65 60 66 68 65 82 82 70 57 59 54 50 47 42 38 37 34 29 26 21
54 60 62 93 97 76 66 64 72 70 74 68 67 69 68 60 53 59 63 58 51 61 63 60 59 63 57 56 56 60 61 53 47 40 52 50 39 41 40 34 26 28 23 16
50 65 54 56 63 71 82 86 83 76 78 76 76 75 58 53 47 46 55 54 56 53 49 46 46 46 48 52 53 54 50 50 45 42 36 38 42 32 32 29 21 19 20 19
80 82 80 79 83 79 85 97 97 95 93 83 70 74 83 76 71 60 42 41 48 42 39 48 43 40 47 41 34 35 43 50 41 31 29 30 33 32 23 22 16 11 10 10
84 96 97 94 98 98 84 85 89 90 83 80 81 78 64 55 51 40 43 40 36 27 22 21 26 35 40 37 31 27 29 36 34 30 22 15 13 15 10 13 10 9 8 9
100 100 100 100 100 97 93 77 65 70 63 58 48 48 44 52 46 44 31 30 17 13 10 9 9 12 11 8 10 11 15 15 11 10 10 9 8 8 7 7 7 7 7 7
100 100 96 96 100 90 79 61 63 63 52 49 36 34 34 24 23 26 14 12 10 9 9 9 8 8 7 6 7 8 8 8 8 8 7 6 6 6 6 6 6 6 7 7
95 100 100 95 81 61 60 56 47 40 37 28 21 21 14 10 10 8 7 6 6 7 8 8 7 7 7 8 8 7 6 6 6 6 6 5 5 5 5 5 5 5 6 6
97 80 56 48 46 40 39 30 30 24 17 10 9 9 7 6 6 6 7 7 7 7 6 5 5 5 5 5 5 5 5 5 5 5 5 5 5 5 5 5 5 5 5 5
59 50 38 34 35 28 22 20 14 8 7 6 5 5 5 4 4 4 4 5 5 4 4 3 4 4 4 4 4 4 5 4 4 4 4 4 4 4 4 4 4 4 4 5
24 25 24 22 16 11 9 8 6 5 5 4 4 3 3 3 2 2 3 3 3 3 3 4 4 3 4 4 4 4 4 4 4 4 4 4 4 4 4 4 4 4 4 4
12 11 10 8 7 6 5 5 4 4 4 3 3 2 2 2 3 3 3 4 4 3 4 4 4 4 4 4 4 4 4 4 4 4 4 4 4 3 4 3 4 4 4 4
6 8 7 5 5 5 4 4 4 3 3 4 3 3 3 4 4 4 4 4 5 4 4 4 4 4 4 4 4 4 4 4 4 4 4 4 3 3 3 3 3 3 4 4
6 5 5 4 4 4 5 4 4 4 4 4 4 4 4 5 5 5 6 4 5 4 4 4 4 4 4 4 4 4 3 3 3 3 3 4 3 3 3 3 3 3 3 3
5 4 4 5 5 5 4 5 6 5 5 5 5 5 5 5 5 4 5 4 4 4 4 4 3 3 4 4 3 3 3 3 3 3 3 3 3 3 3 3 3 3 3 3
5 5 6 5 5 5 6 6 6 6 6 5 5 5 5 5 6 5 4 4 4 4 4 4 4 3 3 3 3 3 3 3 3 3 3 3 3 3 3 3 3 3 3 3
6 6 6 6 5 6 7 7 7 7 6 6 5 5 5 5 5 5 5 5 4 4 4 4 5 5 4 4 4 4 4 4 4 4 4 4 4 4 3 3 3 3 3 3
6 6 6 6 6 6 7 6 6 6 5 5 5 4 4 4 4 4 4 4 5 5 5 4 4 4 4 4 4 4 5 5 4 4 4 4 4 4 4 4 4 4 3 3